Year,Month,Day,Hour,Minute,Value (Times are PST for temperature in C)
2015,07,02,00,00,18.60
2015,07,02,00,01,18.60
2015,07,02,00,02,18.60
2015,07,02,00,03,18.60
2015,07,02,00,04,18.60
2015,07,02,00,05,18.50
2015,07,02,00,06,18.50
2015,07,02,00,07,18.40
2015,07,02,00,08,18.40
2015,07,02,00,09,18.40
2015,07,02,00,10,18.40
2015,07,02,00,11,18.40
2015,07,02,00,12,18.40
2015,07,02,00,13,18.40
2015,07,02,00,14,18.40
2015,07,02,00,15,18.40
2015,07,02,00,16,18.50
2015,07,02,00,17,18.50
2015,07,02,00,18,18.50
2015,07,02,00,19,18.50
2015,07,02,00,20,18.40
2015,07,02,00,21,18.40
2015,07,02,00,22,18.30
2015,07,02,00,23,18.40
2015,07,02,00,24,18.30
2015,07,02,00,25,18.30
2015,07,02,00,26,18.30
2015,07,02,00,27,18.20
2015,07,02,00,28,18.30
2015,07,02,00,29,18.30
2015,07,02,00,30,18.30
2015,07,02,00,31,18.30
2015,07,02,00,32,18.30
2015,07,02,00,33,18.30
2015,07,02,00,34,18.20
2015,07,02,00,35,18.20
2015,07,02,00,36,18.20
2015,07,02,00,37,18.20
2015,07,02,00,38,18.20
2015,07,02,00,39,18.20
2015,07,02,00,40,18.20
2015,07,02,00,41,18.20
2015,07,02,00,42,18.20
2015,07,02,00,43,18.20
2015,07,02,00,44,18.20
2015,07,02,00,45,18.20
2015,07,02,00,46,18.20
2015,07,02,00,47,18.30
2015,07,02,00,48,18.30
2015,07,02,00,49,18.30
2015,07,02,00,50,18.30
2015,07,02,00,51,18.30
2015,07,02,00,52,18.30
2015,07,02,00,53,18.30
2015,07,02,00,54,18.30
2015,07,02,00,55,18.20
2015,07,02,00,56,18.20
2015,07,02,00,57,18.20
2015,07,02,00,58,18.20
2015,07,02,00,59,18.20
2015,07,02,01,00,18.20
2015,07,02,01,01,18.20
2015,07,02,01,02,18.20
2015,07,02,01,03,18.20
2015,07,02,01,04,18.20
2015,07,02,01,05,18.20
2015,07,02,01,06,18.20
2015,07,02,01,07,18.20
2015,07,02,01,08,18.10
2015,07,02,01,09,18.10
2015,07,02,01,10,18.00
2015,07,02,01,11,18.10
2015,07,02,01,12,18.10
2015,07,02,01,13,18.10
2015,07,02,01,14,18.00
2015,07,02,01,15,18.00
2015,07,02,01,16,17.90
2015,07,02,01,17,17.90
2015,07,02,01,18,17.90
2015,07,02,01,19,17.90
2015,07,02,01,20,17.90
2015,07,02,01,21,18.00
2015,07,02,01,22,18.10
2015,07,02,01,23,18.10
2015,07,02,01,24,18.10
2015,07,02,01,25,18.10
2015,07,02,01,26,18.00
2015,07,02,01,27,18.10
2015,07,02,01,28,18.10
2015,07,02,01,29,18.10
2015,07,02,01,30,18.10
2015,07,02,01,31,18.10
2015,07,02,01,32,18.00
2015,07,02,01,33,17.90
2015,07,02,01,34,17.90
2015,07,02,01,35,17.90
2015,07,02,01,36,17.90
2015,07,02,01,37,17.80
2015,07,02,01,38,17.80
2015,07,02,01,39,17.80
2015,07,02,01,40,17.80
2015,07,02,01,41,17.90
2015,07,02,01,42,17.90
2015,07,02,01,43,17.90
2015,07,02,01,44,17.90
2015,07,02,01,45,17.90
2015,07,02,01,46,17.90
2015,07,02,01,47,17.90
2015,07,02,01,48,17.90
2015,07,02,01,49,17.90
2015,07,02,01,50,17.90
2015,07,02,01,51,17.90
2015,07,02,01,52,17.90
2015,07,02,01,53,17.90
2015,07,02,01,54,17.90
2015,07,02,01,55,17.80
2015,07,02,01,56,17.90
2015,07,02,01,57,17.90
2015,07,02,01,58,17.90
2015,07,02,01,59,17.90
2015,07,02,02,00,18.00
2015,07,02,02,01,18.00
2015,07,02,02,02,18.00
2015,07,02,02,03,18.10
2015,07,02,02,04,18.30
2015,07,02,02,05,18.40
2015,07,02,02,06,18.40
2015,07,02,02,07,18.50
2015,07,02,02,08,18.60
2015,07,02,02,09,18.70
2015,07,02,02,10,18.70
2015,07,02,02,11,18.70
2015,07,02,02,12,18.70
2015,07,02,02,13,18.60
2015,07,02,02,14,18.60
2015,07,02,02,15,18.60
2015,07,02,02,16,18.60
2015,07,02,02,17,18.50
2015,07,02,02,18,18.50
2015,07,02,02,19,18.40
2015,07,02,02,20,18.40
2015,07,02,02,21,18.40
2015,07,02,02,22,18.40
2015,07,02,02,23,18.40
2015,07,02,02,24,18.50
2015,07,02,02,25,18.50
2015,07,02,02,26,18.50
2015,07,02,02,27,18.40
2015,07,02,02,28,18.30
2015,07,02,02,29,18.30
2015,07,02,02,30,18.20
2015,07,02,02,31,18.10
2015,07,02,02,32,18.10
2015,07,02,02,33,18.20
2015,07,02,02,34,18.20
2015,07,02,02,35,18.20
2015,07,02,02,36,18.30
2015,07,02,02,37,18.30
2015,07,02,02,38,18.30
2015,07,02,02,39,18.30
2015,07,02,02,40,18.40
2015,07,02,02,41,18.50
2015,07,02,02,42,18.50
2015,07,02,02,43,18.60
2015,07,02,02,44,18.70
2015,07,02,02,45,18.90
2015,07,02,02,46,19.00
2015,07,02,02,47,19.20
2015,07,02,02,48,19.20
2015,07,02,02,49,19.10
2015,07,02,02,50,19.10
2015,07,02,02,51,19.10
2015,07,02,02,52,19.00
2015,07,02,02,53,18.90
2015,07,02,02,54,18.80
2015,07,02,02,55,18.70
2015,07,02,02,56,18.70
2015,07,02,02,57,18.60
2015,07,02,02,58,18.60
2015,07,02,02,59,18.50
2015,07,02,03,00,18.50
2015,07,02,03,01,18.40
2015,07,02,03,02,18.40
2015,07,02,03,03,18.40
2015,07,02,03,04,18.40
2015,07,02,03,05,18.40
2015,07,02,03,06,18.40
2015,07,02,03,07,18.40
2015,07,02,03,08,18.60
2015,07,02,03,09,18.70
2015,07,02,03,10,18.90
2015,07,02,03,11,18.90
2015,07,02,03,12,19.00
2015,07,02,03,13,19.00
2015,07,02,03,14,19.10
2015,07,02,03,15,19.20
2015,07,02,03,16,19.20
2015,07,02,03,17,19.10
2015,07,02,03,18,19.10
2015,07,02,03,19,19.10
2015,07,02,03,20,19.10
2015,07,02,03,21,19.10
2015,07,02,03,22,19.10
2015,07,02,03,23,19.10
2015,07,02,03,24,19.10
2015,07,02,03,25,19.10
2015,07,02,03,26,19.10
2015,07,02,03,27,19.10
2015,07,02,03,28,19.00
2015,07,02,03,29,19.10
2015,07,02,03,30,19.30
2015,07,02,03,31,19.50
2015,07,02,03,32,19.70
2015,07,02,03,33,19.90
2015,07,02,03,34,20.10
2015,07,02,03,35,20.30
2015,07,02,03,36,20.40
2015,07,02,03,37,20.50
2015,07,02,03,38,20.60
2015,07,02,03,39,20.70
2015,07,02,03,40,20.70
2015,07,02,03,41,20.70
2015,07,02,03,42,20.70
2015,07,02,03,43,20.70
2015,07,02,03,44,20.70
2015,07,02,03,45,20.70
2015,07,02,03,46,20.70
2015,07,02,03,47,20.60
2015,07,02,03,48,20.60
2015,07,02,03,49,20.50
2015,07,02,03,50,20.50
2015,07,02,03,51,20.40
2015,07,02,03,52,20.40
2015,07,02,03,53,20.40
2015,07,02,03,54,20.30
2015,07,02,03,55,20.20
2015,07,02,03,56,20.20
2015,07,02,03,57,20.10
2015,07,02,03,58,20.00
2015,07,02,03,59,19.90
2015,07,02,04,00,19.80
2015,07,02,04,01,19.80
2015,07,02,04,02,19.70
2015,07,02,04,03,19.60
2015,07,02,04,04,19.50
2015,07,02,04,05,19.40
2015,07,02,04,06,19.30
2015,07,02,04,07,19.30
2015,07,02,04,08,19.30
2015,07,02,04,09,19.20
2015,07,02,04,10,19.10
2015,07,02,04,11,19.00
2015,07,02,04,12,18.90
2015,07,02,04,13,18.90
2015,07,02,04,14,18.90
2015,07,02,04,15,18.90
2015,07,02,04,16,18.90
2015,07,02,04,17,18.80
2015,07,02,04,18,18.70
2015,07,02,04,19,18.70
2015,07,02,04,20,18.60
2015,07,02,04,21,18.50
2015,07,02,04,22,18.50
2015,07,02,04,23,18.40
2015,07,02,04,24,18.40
2015,07,02,04,25,18.40
2015,07,02,04,26,18.40
2015,07,02,04,27,18.30
2015,07,02,04,28,18.30
2015,07,02,04,29,18.20
2015,07,02,04,30,18.10
2015,07,02,04,31,18.00
2015,07,02,04,32,18.00
2015,07,02,04,33,17.90
2015,07,02,04,34,17.90
2015,07,02,04,35,17.90
2015,07,02,04,36,17.90
2015,07,02,04,37,18.00
2015,07,02,04,38,18.00
2015,07,02,04,39,18.10
2015,07,02,04,40,18.10
2015,07,02,04,41,18.20
2015,07,02,04,42,18.20
2015,07,02,04,43,18.10
2015,07,02,04,44,18.10
2015,07,02,04,45,18.10
2015,07,02,04,46,18.00
2015,07,02,04,47,18.00
2015,07,02,04,48,18.00
2015,07,02,04,49,18.00
2015,07,02,04,50,18.00
2015,07,02,04,51,18.10
2015,07,02,04,52,18.10
2015,07,02,04,53,18.00
2015,07,02,04,54,18.00
2015,07,02,04,55,18.00
2015,07,02,04,56,18.00
2015,07,02,04,57,18.00
2015,07,02,04,58,18.00
2015,07,02,04,59,18.00
2015,07,02,05,00,17.90
2015,07,02,05,01,17.90
2015,07,02,05,02,17.80
2015,07,02,05,03,17.80
2015,07,02,05,04,17.80
2015,07,02,05,05,17.80
2015,07,02,05,06,17.80
2015,07,02,05,07,17.80
2015,07,02,05,08,17.80
2015,07,02,05,09,17.80
2015,07,02,05,10,17.80
2015,07,02,05,11,17.80
2015,07,02,05,12,17.80
2015,07,02,05,13,17.90
2015,07,02,05,14,17.90
2015,07,02,05,15,18.00
2015,07,02,05,16,18.00
2015,07,02,05,17,18.10
2015,07,02,05,18,18.10
2015,07,02,05,19,18.10
2015,07,02,05,20,18.20
2015,07,02,05,21,18.20
2015,07,02,05,22,18.20
2015,07,02,05,23,18.20
2015,07,02,05,24,18.40
2015,07,02,05,25,18.50
2015,07,02,05,26,18.60
2015,07,02,05,27,18.70
2015,07,02,05,28,18.80
2015,07,02,05,29,18.90
2015,07,02,05,30,19.00
2015,07,02,05,31,19.00
2015,07,02,05,32,19.10
2015,07,02,05,33,19.10
2015,07,02,05,34,19.10
2015,07,02,05,35,19.20
2015,07,02,05,36,19.30
2015,07,02,05,37,19.40
2015,07,02,05,38,19.50
2015,07,02,05,39,19.60
2015,07,02,05,40,19.70
2015,07,02,05,41,19.70
2015,07,02,05,42,19.80
2015,07,02,05,43,19.80
2015,07,02,05,44,20.00
2015,07,02,05,45,20.00
2015,07,02,05,46,20.10
2015,07,02,05,47,20.20
2015,07,02,05,48,20.30
2015,07,02,05,49,20.30
2015,07,02,05,50,20.40
2015,07,02,05,51,20.40
2015,07,02,05,52,20.40
2015,07,02,05,53,20.40
2015,07,02,05,54,20.40
2015,07,02,05,55,20.30
2015,07,02,05,56,20.20
2015,07,02,05,57,20.10
2015,07,02,05,58,20.00
2015,07,02,05,59,20.00
2015,07,02,06,00,19.90
2015,07,02,06,01,19.90
2015,07,02,06,02,19.90
2015,07,02,06,03,19.90
2015,07,02,06,04,19.90
2015,07,02,06,05,19.90
2015,07,02,06,06,19.90
2015,07,02,06,07,19.90
2015,07,02,06,08,20.00
2015,07,02,06,09,20.00
2015,07,02,06,10,20.00
2015,07,02,06,11,20.10
2015,07,02,06,12,20.10
2015,07,02,06,13,20.10
2015,07,02,06,14,20.10
2015,07,02,06,15,20.10
2015,07,02,06,16,20.10
2015,07,02,06,17,20.10
2015,07,02,06,18,20.00
2015,07,02,06,19,19.90
2015,07,02,06,20,19.90
2015,07,02,06,21,19.80
2015,07,02,06,22,19.80
2015,07,02,06,23,19.80
2015,07,02,06,24,19.80
2015,07,02,06,25,19.70
2015,07,02,06,26,19.70
2015,07,02,06,27,19.70
2015,07,02,06,28,19.60
2015,07,02,06,29,19.70
2015,07,02,06,30,19.70
2015,07,02,06,31,19.60
2015,07,02,06,32,19.60
2015,07,02,06,33,19.60
2015,07,02,06,34,19.50
2015,07,02,06,35,19.50
2015,07,02,06,36,19.40
2015,07,02,06,37,19.40
2015,07,02,06,38,19.30
2015,07,02,06,39,19.30
2015,07,02,06,40,19.20
2015,07,02,06,41,19.20
2015,07,02,06,42,19.20
2015,07,02,06,43,19.10
2015,07,02,06,44,19.10
2015,07,02,06,45,19.10
2015,07,02,06,46,19.10
2015,07,02,06,47,19.10
2015,07,02,06,48,19.10
2015,07,02,06,49,19.10
2015,07,02,06,50,19.10
2015,07,02,06,51,19.10
2015,07,02,06,52,19.10
2015,07,02,06,53,19.10
2015,07,02,06,54,19.10
2015,07,02,06,55,19.00
2015,07,02,06,56,19.10
2015,07,02,06,57,19.20
2015,07,02,06,58,19.20
2015,07,02,06,59,19.20
2015,07,02,07,00,19.20
2015,07,02,07,01,19.30
2015,07,02,07,02,19.30
2015,07,02,07,03,19.30
2015,07,02,07,04,19.30
2015,07,02,07,05,19.40
2015,07,02,07,06,19.40
2015,07,02,07,07,19.40
2015,07,02,07,08,19.50
2015,07,02,07,09,19.60
2015,07,02,07,10,19.70
2015,07,02,07,11,19.80
2015,07,02,07,12,19.80
2015,07,02,07,13,19.90
2015,07,02,07,14,19.90
2015,07,02,07,15,19.90
2015,07,02,07,16,20.00
2015,07,02,07,17,20.00
2015,07,02,07,18,20.00
2015,07,02,07,19,20.00
2015,07,02,07,20,20.00
2015,07,02,07,21,20.00
2015,07,02,07,22,20.00
2015,07,02,07,23,20.00
2015,07,02,07,24,20.00
2015,07,02,07,25,20.00
2015,07,02,07,26,20.00
2015,07,02,07,27,20.00
2015,07,02,07,28,20.00
2015,07,02,07,29,20.00
2015,07,02,07,30,20.10
2015,07,02,07,31,20.10
2015,07,02,07,32,20.10
2015,07,02,07,33,20.00
2015,07,02,07,34,20.00
2015,07,02,07,35,20.00
2015,07,02,07,36,20.00
2015,07,02,07,37,20.00
2015,07,02,07,38,20.00
2015,07,02,07,39,20.00
2015,07,02,07,40,20.00
2015,07,02,07,41,20.00
2015,07,02,07,42,20.00
2015,07,02,07,43,20.10
2015,07,02,07,44,20.10
2015,07,02,07,45,20.10
2015,07,02,07,46,20.10
2015,07,02,07,47,20.10
2015,07,02,07,48,20.10
2015,07,02,07,49,20.10
2015,07,02,07,50,20.10
2015,07,02,07,51,20.10
2015,07,02,07,52,20.10
2015,07,02,07,53,20.10
2015,07,02,07,54,20.10
2015,07,02,07,55,20.10
2015,07,02,07,56,20.10
2015,07,02,07,57,20.10
2015,07,02,07,58,20.00
2015,07,02,07,59,20.10
2015,07,02,08,00,20.10
2015,07,02,08,01,20.10
2015,07,02,08,02,20.10
2015,07,02,08,03,20.10
2015,07,02,08,04,20.10
2015,07,02,08,05,20.10
2015,07,02,08,06,20.10
2015,07,02,08,07,20.10
2015,07,02,08,08,20.10
2015,07,02,08,09,20.10
2015,07,02,08,10,20.10
2015,07,02,08,11,20.10
2015,07,02,08,12,20.10
2015,07,02,08,13,20.10
2015,07,02,08,14,20.10
2015,07,02,08,15,20.10
2015,07,02,08,16,20.10
2015,07,02,08,17,20.10
2015,07,02,08,18,20.10
2015,07,02,08,19,20.10
2015,07,02,08,20,20.20
2015,07,02,08,21,20.10
2015,07,02,08,22,20.10
2015,07,02,08,23,20.10
2015,07,02,08,24,20.10
2015,07,02,08,25,20.10
2015,07,02,08,26,20.10
2015,07,02,08,27,20.20
2015,07,02,08,28,20.20
2015,07,02,08,29,20.20
2015,07,02,08,30,20.20
2015,07,02,08,31,20.20
2015,07,02,08,32,20.20
2015,07,02,08,33,20.30
2015,07,02,08,34,20.30
2015,07,02,08,35,20.40
2015,07,02,08,36,20.40
2015,07,02,08,37,20.50
2015,07,02,08,38,20.50
2015,07,02,08,39,20.50
2015,07,02,08,40,20.50
2015,07,02,08,41,20.50
2015,07,02,08,42,20.50
2015,07,02,08,43,20.50
2015,07,02,08,44,20.50
2015,07,02,08,45,20.50
2015,07,02,08,46,20.50
2015,07,02,08,47,20.60
2015,07,02,08,48,20.60
2015,07,02,08,49,20.60
2015,07,02,08,50,20.60
2015,07,02,08,51,20.70
2015,07,02,08,52,20.70
2015,07,02,08,53,20.80
2015,07,02,08,54,20.80
2015,07,02,08,55,20.90
2015,07,02,08,56,20.90
2015,07,02,08,57,20.90
2015,07,02,08,58,21.00
2015,07,02,08,59,21.00
2015,07,02,09,00,21.10
2015,07,02,09,01,21.10
2015,07,02,09,02,21.10
2015,07,02,09,03,21.10
2015,07,02,09,04,21.10
2015,07,02,09,05,21.10
2015,07,02,09,06,21.10
2015,07,02,09,07,21.10
2015,07,02,09,08,21.10
2015,07,02,09,09,21.10
2015,07,02,09,10,21.10
2015,07,02,09,11,21.00
2015,07,02,09,12,21.00
2015,07,02,09,13,20.90
2015,07,02,09,14,21.00
2015,07,02,09,15,21.00
2015,07,02,09,16,21.10
2015,07,02,09,17,21.10
2015,07,02,09,18,21.10
2015,07,02,09,19,21.10
2015,07,02,09,20,21.20
2015,07,02,09,21,21.20
2015,07,02,09,22,21.30
2015,07,02,09,23,21.30
2015,07,02,09,24,21.30
2015,07,02,09,25,21.40
2015,07,02,09,26,21.40
2015,07,02,09,27,21.50
2015,07,02,09,28,21.60
2015,07,02,09,29,21.60
2015,07,02,09,30,21.70
2015,07,02,09,31,21.70
2015,07,02,09,32,21.80
2015,07,02,09,33,21.90
2015,07,02,09,34,21.90
2015,07,02,09,35,21.90
2015,07,02,09,36,21.90
2015,07,02,09,37,22.00
2015,07,02,09,38,22.00
2015,07,02,09,39,22.00
2015,07,02,09,40,22.00
2015,07,02,09,41,21.90
2015,07,02,09,42,21.90
2015,07,02,09,43,21.90
2015,07,02,09,44,21.90
2015,07,02,09,45,21.90
2015,07,02,09,46,21.90
2015,07,02,09,47,21.90
2015,07,02,09,48,22.00
2015,07,02,09,49,21.90
2015,07,02,09,50,21.90
2015,07,02,09,51,21.90
2015,07,02,09,52,21.90
2015,07,02,09,53,21.90
2015,07,02,09,54,21.90
2015,07,02,09,55,21.90
2015,07,02,09,56,22.00
2015,07,02,09,57,22.00
2015,07,02,09,58,22.00
2015,07,02,09,59,22.00
2015,07,02,10,00,22.10
2015,07,02,10,01,22.00
2015,07,02,10,02,22.10
2015,07,02,10,03,22.10
2015,07,02,10,04,22.20
2015,07,02,10,05,22.30
2015,07,02,10,06,22.30
2015,07,02,10,07,22.30
2015,07,02,10,08,22.40
2015,07,02,10,09,22.40
2015,07,02,10,10,22.40
2015,07,02,10,11,22.40
2015,07,02,10,12,22.30
2015,07,02,10,13,22.20
2015,07,02,10,14,22.20
2015,07,02,10,15,22.10
2015,07,02,10,16,22.00
2015,07,02,10,17,22.00
2015,07,02,10,18,22.10
2015,07,02,10,19,22.10
2015,07,02,10,20,22.10
2015,07,02,10,21,22.10
2015,07,02,10,22,22.10
2015,07,02,10,23,22.10
2015,07,02,10,24,22.10
2015,07,02,10,25,22.10
2015,07,02,10,26,22.10
2015,07,02,10,27,22.20
2015,07,02,10,28,22.30
2015,07,02,10,29,22.40
2015,07,02,10,30,22.40
2015,07,02,10,31,22.50
2015,07,02,10,32,22.50
2015,07,02,10,33,22.50
2015,07,02,10,34,22.50
2015,07,02,10,35,22.40
2015,07,02,10,36,22.30
2015,07,02,10,37,22.40
2015,07,02,10,38,22.40
2015,07,02,10,39,22.40
2015,07,02,10,40,22.40
2015,07,02,10,41,22.40
2015,07,02,10,42,22.40
2015,07,02,10,43,22.40
2015,07,02,10,44,22.40
2015,07,02,10,45,22.40
2015,07,02,10,46,22.40
2015,07,02,10,47,22.40
2015,07,02,10,48,22.50
2015,07,02,10,49,22.60
2015,07,02,10,50,22.70
2015,07,02,10,51,22.70
2015,07,02,10,52,22.70
2015,07,02,10,53,22.60
2015,07,02,10,54,22.60
2015,07,02,10,55,22.70
2015,07,02,10,56,22.70
2015,07,02,10,57,22.60
2015,07,02,10,58,22.50
2015,07,02,10,59,22.40
2015,07,02,11,00,22.40
2015,07,02,11,01,22.50
2015,07,02,11,02,22.60
2015,07,02,11,03,22.60
2015,07,02,11,04,22.70
2015,07,02,11,05,22.70
2015,07,02,11,06,22.70
2015,07,02,11,07,22.70
2015,07,02,11,08,22.70
2015,07,02,11,09,22.70
2015,07,02,11,10,22.70
2015,07,02,11,11,22.70
2015,07,02,11,12,22.80
2015,07,02,11,13,22.80
2015,07,02,11,14,22.90
2015,07,02,11,15,22.90
2015,07,02,11,16,22.80
2015,07,02,11,17,22.80
2015,07,02,11,18,22.80
2015,07,02,11,19,22.80
2015,07,02,11,20,22.70
2015,07,02,11,21,22.60
2015,07,02,11,22,22.60
2015,07,02,11,23,22.50
2015,07,02,11,24,22.40
2015,07,02,11,25,22.40
2015,07,02,11,26,22.30
2015,07,02,11,27,22.40
2015,07,02,11,28,22.40
2015,07,02,11,29,22.40
2015,07,02,11,30,22.40
2015,07,02,11,31,22.40
2015,07,02,11,32,22.40
2015,07,02,11,33,22.40
2015,07,02,11,34,22.40
2015,07,02,11,35,22.40
2015,07,02,11,36,22.50
2015,07,02,11,37,22.60
2015,07,02,11,38,22.50
2015,07,02,11,39,22.40
2015,07,02,11,40,22.30
2015,07,02,11,41,22.30
2015,07,02,11,42,22.30
2015,07,02,11,43,22.40
2015,07,02,11,44,22.50
2015,07,02,11,45,22.50
2015,07,02,11,46,22.60
2015,07,02,11,47,22.80
2015,07,02,11,48,23.00
2015,07,02,11,49,23.20
2015,07,02,11,50,23.30
2015,07,02,11,51,23.60
2015,07,02,11,52,23.80
2015,07,02,11,53,23.80
2015,07,02,11,54,23.60
2015,07,02,11,55,23.50
2015,07,02,11,56,23.50
2015,07,02,11,57,23.60
2015,07,02,11,58,23.60
2015,07,02,11,59,23.50
2015,07,02,12,00,23.50
2015,07,02,12,01,23.50
2015,07,02,12,02,23.50
2015,07,02,12,03,23.30
2015,07,02,12,04,23.20
2015,07,02,12,05,23.20
2015,07,02,12,06,23.20
2015,07,02,12,07,23.10
2015,07,02,12,08,23.10
2015,07,02,12,09,23.00
2015,07,02,12,10,23.00
2015,07,02,12,11,23.00
2015,07,02,12,12,23.00
2015,07,02,12,13,23.10
2015,07,02,12,14,23.10
2015,07,02,12,15,23.20
2015,07,02,12,16,23.30
2015,07,02,12,17,23.30
2015,07,02,12,18,23.40
2015,07,02,12,19,23.40
2015,07,02,12,20,23.40
2015,07,02,12,21,23.50
2015,07,02,12,22,23.50
2015,07,02,12,23,23.60
2015,07,02,12,24,23.50
2015,07,02,12,25,23.50
2015,07,02,12,26,23.60
2015,07,02,12,27,23.60
2015,07,02,12,28,23.50
2015,07,02,12,29,23.50
2015,07,02,12,30,23.50
2015,07,02,12,31,23.50
2015,07,02,12,32,23.50
2015,07,02,12,33,23.50
2015,07,02,12,34,23.50
2015,07,02,12,35,23.50
2015,07,02,12,36,23.50
2015,07,02,12,37,23.60
2015,07,02,12,38,23.50
2015,07,02,12,39,23.40
2015,07,02,12,40,23.30
2015,07,02,12,41,23.40
2015,07,02,12,42,23.40
2015,07,02,12,43,23.40
2015,07,02,12,44,23.50
2015,07,02,12,45,23.60
2015,07,02,12,46,23.70
2015,07,02,12,47,23.80
2015,07,02,12,48,24.00
2015,07,02,12,49,24.10
2015,07,02,12,50,24.20
2015,07,02,12,51,24.30
2015,07,02,12,52,24.30
2015,07,02,12,53,24.20
2015,07,02,12,54,24.00
2015,07,02,12,55,24.00
2015,07,02,12,56,23.90
2015,07,02,12,57,23.80
2015,07,02,12,58,23.80
2015,07,02,12,59,23.80
2015,07,02,13,00,23.70
2015,07,02,13,01,23.60
2015,07,02,13,02,23.70
2015,07,02,13,03,23.80
2015,07,02,13,04,24.00
2015,07,02,13,05,24.10
2015,07,02,13,06,24.20
2015,07,02,13,07,24.20
2015,07,02,13,08,24.20
2015,07,02,13,09,24.30
2015,07,02,13,10,24.40
2015,07,02,13,11,24.60
2015,07,02,13,12,24.80
2015,07,02,13,13,25.00
2015,07,02,13,14,25.10
2015,07,02,13,15,25.20
2015,07,02,13,16,25.20
2015,07,02,13,17,25.10
2015,07,02,13,18,25.10
2015,07,02,13,19,25.20
2015,07,02,13,20,25.20
2015,07,02,13,21,25.10
2015,07,02,13,22,25.10
2015,07,02,13,23,25.10
2015,07,02,13,24,25.00
2015,07,02,13,25,24.90
2015,07,02,13,26,24.80
2015,07,02,13,27,24.80
2015,07,02,13,28,24.80
2015,07,02,13,29,24.80
2015,07,02,13,30,24.80
2015,07,02,13,31,24.80
2015,07,02,13,32,24.90
2015,07,02,13,33,25.00
2015,07,02,13,34,25.00
2015,07,02,13,35,25.10
2015,07,02,13,36,25.10
2015,07,02,13,37,25.00
2015,07,02,13,38,24.80
2015,07,02,13,39,24.70
2015,07,02,13,40,24.60
2015,07,02,13,41,24.60
2015,07,02,13,42,24.70
2015,07,02,13,43,24.80
2015,07,02,13,44,25.00
2015,07,02,13,45,25.20
2015,07,02,13,46,25.40
2015,07,02,13,47,25.50
2015,07,02,13,48,25.50
2015,07,02,13,49,25.50
2015,07,02,13,50,25.40
2015,07,02,13,51,25.30
2015,07,02,13,52,25.20
2015,07,02,13,53,25.10
2015,07,02,13,54,25.00
2015,07,02,13,55,24.90
2015,07,02,13,56,24.80
2015,07,02,13,57,24.70
2015,07,02,13,58,24.60
2015,07,02,13,59,24.60
2015,07,02,14,00,24.70
2015,07,02,14,01,24.90
2015,07,02,14,02,25.10
2015,07,02,14,03,25.20
2015,07,02,14,04,25.40
2015,07,02,14,05,25.60
2015,07,02,14,06,25.80
2015,07,02,14,07,25.90
2015,07,02,14,08,26.00
2015,07,02,14,09,26.10
2015,07,02,14,10,26.00
2015,07,02,14,11,25.90
2015,07,02,14,12,25.80
2015,07,02,14,13,25.60
2015,07,02,14,14,25.50
2015,07,02,14,15,25.40
2015,07,02,14,16,25.30
2015,07,02,14,17,25.40
2015,07,02,14,18,25.50
2015,07,02,14,19,25.60
2015,07,02,14,20,25.80
2015,07,02,14,21,25.90
2015,07,02,14,22,26.00
2015,07,02,14,23,25.90
2015,07,02,14,24,26.00
2015,07,02,14,25,26.00
2015,07,02,14,26,25.90
2015,07,02,14,27,25.80
2015,07,02,14,28,25.70
2015,07,02,14,29,25.70
2015,07,02,14,30,25.70
2015,07,02,14,31,25.70
2015,07,02,14,32,25.70
2015,07,02,14,33,25.80
2015,07,02,14,34,25.90
2015,07,02,14,35,26.10
2015,07,02,14,36,26.30
2015,07,02,14,37,26.50
2015,07,02,14,38,26.70
2015,07,02,14,39,26.90
2015,07,02,14,40,27.10
2015,07,02,14,41,27.10
2015,07,02,14,42,27.20
2015,07,02,14,43,27.30
2015,07,02,14,44,27.40
2015,07,02,14,45,27.40
2015,07,02,14,46,27.50
2015,07,02,14,47,27.50
2015,07,02,14,48,27.60
2015,07,02,14,49,27.70
2015,07,02,14,50,27.70
2015,07,02,14,51,27.60
2015,07,02,14,52,27.60
2015,07,02,14,53,27.70
2015,07,02,14,54,27.70
2015,07,02,14,55,27.70
2015,07,02,14,56,27.70
2015,07,02,14,57,27.70
2015,07,02,14,58,27.70
2015,07,02,14,59,27.60
2015,07,02,15,00,27.60
2015,07,02,15,01,27.40
2015,07,02,15,02,27.30
2015,07,02,15,03,27.30
2015,07,02,15,04,27.20
2015,07,02,15,05,27.20
2015,07,02,15,06,27.00
2015,07,02,15,07,26.90
2015,07,02,15,08,26.70
2015,07,02,15,09,26.60
2015,07,02,15,10,26.60
2015,07,02,15,11,26.50
2015,07,02,15,12,26.60
2015,07,02,15,13,26.70
2015,07,02,15,14,26.70
2015,07,02,15,15,26.70
2015,07,02,15,16,26.70
2015,07,02,15,17,26.70
2015,07,02,15,18,26.70
2015,07,02,15,19,26.90
2015,07,02,15,20,27.00
2015,07,02,15,21,27.00
2015,07,02,15,22,27.00
2015,07,02,15,23,27.00
2015,07,02,15,24,27.10
2015,07,02,15,25,27.10
2015,07,02,15,26,27.10
2015,07,02,15,27,27.00
2015,07,02,15,28,26.90
2015,07,02,15,29,26.90
2015,07,02,15,30,26.80
2015,07,02,15,31,26.80
2015,07,02,15,32,26.80
2015,07,02,15,33,26.80
2015,07,02,15,34,26.80
2015,07,02,15,35,26.90
2015,07,02,15,36,26.90
2015,07,02,15,37,26.90
2015,07,02,15,38,27.00
2015,07,02,15,39,27.10
2015,07,02,15,40,27.20
2015,07,02,15,41,27.30
2015,07,02,15,42,27.40
2015,07,02,15,43,27.40
2015,07,02,15,44,27.40
2015,07,02,15,45,27.40
2015,07,02,15,46,27.40
2015,07,02,15,47,27.40
2015,07,02,15,48,27.40
2015,07,02,15,49,27.30
2015,07,02,15,50,27.30
2015,07,02,15,51,27.40
2015,07,02,15,52,27.50
2015,07,02,15,53,27.60
2015,07,02,15,54,27.70
2015,07,02,15,55,27.70
2015,07,02,15,56,27.80
2015,07,02,15,57,28.00
2015,07,02,15,58,28.10
2015,07,02,15,59,28.20
2015,07,02,16,00,28.30
2015,07,02,16,01,28.30
2015,07,02,16,02,28.40
2015,07,02,16,03,28.30
2015,07,02,16,04,28.30
2015,07,02,16,05,28.30
2015,07,02,16,06,28.20
2015,07,02,16,07,28.20
2015,07,02,16,08,28.20
2015,07,02,16,09,28.30
2015,07,02,16,10,28.30
2015,07,02,16,11,28.30
2015,07,02,16,12,28.20
2015,07,02,16,13,28.10
2015,07,02,16,14,27.90
2015,07,02,16,15,27.70
2015,07,02,16,16,27.40
2015,07,02,16,17,27.20
2015,07,02,16,18,27.10
2015,07,02,16,19,27.00
2015,07,02,16,20,27.00
2015,07,02,16,21,27.00
2015,07,02,16,22,27.00
2015,07,02,16,23,26.90
2015,07,02,16,24,26.90
2015,07,02,16,25,26.90
2015,07,02,16,26,27.00
2015,07,02,16,27,27.10
2015,07,02,16,28,27.20
2015,07,02,16,29,27.40
2015,07,02,16,30,27.50
2015,07,02,16,31,27.60
2015,07,02,16,32,27.60
2015,07,02,16,33,27.60
2015,07,02,16,34,27.60
2015,07,02,16,35,27.60
2015,07,02,16,36,27.60
2015,07,02,16,37,27.50
2015,07,02,16,38,27.50
2015,07,02,16,39,27.50
2015,07,02,16,40,27.60
2015,07,02,16,41,27.50
2015,07,02,16,42,27.40
2015,07,02,16,43,27.20
2015,07,02,16,44,27.00
2015,07,02,16,45,26.90
2015,07,02,16,46,26.80
2015,07,02,16,47,26.80
2015,07,02,16,48,26.70
2015,07,02,16,49,26.70
2015,07,02,16,50,26.80
2015,07,02,16,51,26.90
2015,07,02,16,52,27.00
2015,07,02,16,53,27.00
2015,07,02,16,54,27.10
2015,07,02,16,55,27.20
2015,07,02,16,56,27.30
2015,07,02,16,57,27.40
2015,07,02,16,58,27.50
2015,07,02,16,59,27.60
2015,07,02,17,00,27.60
2015,07,02,17,01,27.60
2015,07,02,17,02,27.70
2015,07,02,17,03,27.80
2015,07,02,17,04,27.90
2015,07,02,17,05,28.10
2015,07,02,17,06,28.10
2015,07,02,17,07,28.20
2015,07,02,17,08,28.20
2015,07,02,17,09,28.20
2015,07,02,17,10,28.20
2015,07,02,17,11,28.20
2015,07,02,17,12,28.20
2015,07,02,17,13,28.30
2015,07,02,17,14,28.40
2015,07,02,17,15,28.50
2015,07,02,17,16,28.60
2015,07,02,17,17,28.60
2015,07,02,17,18,28.60
2015,07,02,17,19,28.50